Change the Weather History Date:

Tuesday, April 8, 2014

  Actual Average Record
Temperature  
Mean Temperature 71 °F 70 °F  
Max Temperature 77 °F 80 °F 89 °F (1947)
Min Temperature 65 °F 62 °F 40 °F (1971)
Degree Days  
Heating Degree Days 0 1  
Month to date heating degree days 0 8  
Since 1 July heating degree days 444 535  
Cooling Degree Days 6 6  
Month to date cooling degree days 60 45  
Year to date cooling degree days 242 284  
Growing Degree Days 20 (Base 50)    
Moisture  
Dew Point 65 °F    
Average Humidity 80    
Maximum Humidity 97    
Minimum Humidity 63    
Precipitation  
Precipitation 0.18 in 0.07 in 2.26 in (1940)
Month to date precipitation 0.18 0.60  
Year to date precipitation 10.08 8.67  
Sea Level Pressure  
Sea Level Pressure 29.81 in    
Wind  
Wind Speed 13 mph (West)    
Max Wind Speed 24 mph    
Max Gust Speed 33 mph    
Visibility 9 miles    
Events Rain    
T = Trace of Precipitation, MM = Missing Value Source: NWS Daily Summary

Daily Weather History Graph

Daily Weather History Graph

Search for Another Location

Airport or City:

Trip Planner

Search our weather history database for the weather conditions in past years. The results will help you decide how hot, cold, wet, or windy it might be!

Date:

Astronomy

Apr. 08, 2014 Rise Set
Actual Time 7:12 AM EDT 7:51 PM EDT
Civil Twilight 6:48 AM EDT 8:15 PM EDT
Nautical Twilight 6:21 AM EDT 8:43 PM EDT
Astronomical Twilight 5:52 AM EDT 9:11 PM EDT
Moon 2:12 PM EDT (4/8) 2:55 AM EDT (4/8)
Length of Visible Light 13h 26m
Length of Day
12h 38m
Waxing Gibbous, 62% of the Moon is Illuminated
Apr 8
Waxing Gibbous
Apr 15
Full
Apr 22
Last Quarter
Apr 29
New
May 6
First Quarter

Hourly Weather History & Observations

Time (EDT) Temp. Dew Point Humidity Pressure Visibility Wind Dir Wind Speed Gust Speed Precip Events Conditions
12:53 AM 75.9 °F 69.1 °F 79% 29.85 in 10.0 mi South 9.2 mph - N/A   Overcast
1:53 AM 75.9 °F 69.1 °F 79% 29.83 in 10.0 mi South 8.1 mph - N/A   Mostly Cloudy
2:53 AM 75.0 °F 69.1 °F 82% 29.81 in 10.0 mi South 8.1 mph - N/A   Mostly Cloudy
3:53 AM 75.0 °F 70.0 °F 84% 29.78 in 10.0 mi South 8.1 mph - N/A   Overcast
4:53 AM 77.0 °F 72.0 °F 84% 29.75 in 10.0 mi South 17.3 mph - N/A   Overcast
5:53 AM 75.9 °F 72.0 °F 87% 29.79 in 9.0 mi South 17.3 mph - N/A   Overcast
6:53 AM 75.0 °F 72.0 °F 90% 29.79 in 9.0 mi South 15.0 mph - N/A   Overcast
7:53 AM 75.0 °F 72.0 °F 90% 29.81 in 9.0 mi South 16.1 mph - N/A   Overcast
8:53 AM 75.9 °F 73.0 °F 91% 29.81 in 7.0 mi South 15.0 mph 23.0 mph 0.00 in   Overcast
9:35 AM 75.0 °F 73.0 °F 94% 29.80 in 3.0 mi South 16.1 mph - 0.06 in Rain Light Rain
9:53 AM 75.0 °F 73.0 °F 94% 29.80 in 3.0 mi South 17.3 mph 23.0 mph 0.09 in Rain Light Rain
10:12 AM 75.0 °F 73.0 °F 94% 29.80 in 3.0 mi SSW 15.0 mph - 0.01 in Rain Light Rain
10:24 AM 71.1 °F 69.1 °F 93% 29.81 in 2.5 mi West 15.0 mph - 0.03 in Rain Light Rain
10:32 AM 71.1 °F 69.1 °F 93% 29.81 in 3.0 mi West 12.7 mph - 0.07 in Rain Light Rain
10:49 AM 69.8 °F 68.0 °F 94% 29.81 in 9.0 mi WNW 5.8 mph - 0.08 in Rain Light Rain
10:53 AM 70.0 °F 68.0 °F 93% 29.81 in 10.0 mi Variable 3.5 mph - 0.08 in Rain Light Rain
11:00 AM 70.0 °F 68.0 °F 93% 29.81 in 10.0 mi WNW 4.6 mph - 0.01 in   Overcast
11:11 AM 70.0 °F 68.0 °F 93% 29.82 in 10.0 mi NW 10.4 mph - 0.01 in   Overcast
11:24 AM 69.1 °F 66.9 °F 93% 29.83 in 10.0 mi WNW 9.2 mph - 0.01 in Rain Light Rain
11:36 AM 69.1 °F 66.9 °F 93% 29.83 in 10.0 mi NW 9.2 mph - 0.01 in   Overcast
11:53 AM 69.1 °F 66.0 °F 90% 29.82 in 10.0 mi NNW 8.1 mph - 0.01 in   Overcast
12:53 PM 69.1 °F 64.9 °F 87% 29.80 in 10.0 mi North 4.6 mph - N/A   Overcast
1:53 PM 68.0 °F 64.9 °F 90% 29.77 in 10.0 mi NW 6.9 mph - 0.00 in Rain Light Rain
2:21 PM 69.1 °F 64.9 °F 87% 29.78 in 10.0 mi NW 5.8 mph - 0.00 in   Mostly Cloudy
2:35 PM 69.1 °F 64.9 °F 87% 29.77 in 10.0 mi NW 6.9 mph - 0.00 in   Overcast
2:48 PM 69.8 °F 62.6 °F 78% 29.78 in 10.0 mi WNW 12.7 mph 18.4 mph 0.00 in   Overcast
2:53 PM 70.0 °F 61.0 °F 73% 29.78 in 10.0 mi WNW 13.8 mph - 0.00 in   Overcast
3:53 PM 66.9 °F 61.0 °F 81% 29.81 in 10.0 mi West 13.8 mph - N/A   Overcast
4:37 PM 68.0 °F 61.0 °F 78% 29.82 in 10.0 mi West 16.1 mph - N/A   Overcast
4:53 PM 68.0 °F 62.1 °F 81% 29.81 in 10.0 mi West 10.4 mph 21.9 mph N/A   Overcast
5:53 PM 69.1 °F 62.1 °F 78% 29.79 in 10.0 mi West 13.8 mph 24.2 mph N/A   Overcast
6:06 PM 69.1 °F 61.0 °F 75% 29.79 in 10.0 mi WNW 17.3 mph - N/A   Overcast
6:53 PM 69.1 °F 60.1 °F 73% 29.81 in 10.0 mi West 15.0 mph 26.5 mph N/A   Overcast
7:46 PM 68.0 °F 57.9 °F 70% 29.83 in 10.0 mi West 17.3 mph 26.5 mph N/A   Mostly Cloudy
7:53 PM 68.0 °F 57.9 °F 70% 29.83 in 10.0 mi West 11.5 mph 25.3 mph N/A   Mostly Cloudy
8:04 PM 68.0 °F 57.9 °F 70% 29.83 in 10.0 mi West 15.0 mph 25.3 mph N/A   Mostly Cloudy
8:53 PM 68.0 °F 59.0 °F 73% 29.86 in 10.0 mi West 16.1 mph 27.6 mph N/A   Scattered Clouds
9:53 PM 66.9 °F 57.0 °F 70% 29.88 in 10.0 mi WNW 18.4 mph 28.8 mph N/A   Scattered Clouds
10:53 PM 66.9 °F 54.0 °F 63% 29.89 in 10.0 mi West 19.6 mph 27.6 mph N/A   Mostly Cloudy
11:53 PM 66.0 °F 53.1 °F 63% 29.91 in 10.0 mi West 19.6 mph 27.6 mph N/A   Mostly Cloudy